Weather in Novaya Kakhovka

Ukraine / Kherson District     46˚45′00″N   33˚21′32″E
temp.,
°C
wind,
m/s
gust,
m/s
humid.,
%
clouds,
%
prec.,
mm/h
press.,
hPa
HPBL,
m
1 december, tue
tue123:00+5˚ne4787100 0.0 1021226
02:00+4˚ne4889100 0.0 1021238
05:00+5˚ne5987100 0.0 1021390
08:00+6˚ene5879100 0.0 1021632
11:00+6˚ene5773100 0.1 1021743
14:00+6˚ene5769100 0.1 1021769
17:00+5˚ene5873100 0.0 1021661
20:00+5˚ene5875100 0.0 1022637
2 december, wed
wed223:00+5˚ene5876100 0.0 1022568
02:00+5˚ene4780100 0.0 1023490
05:00+5˚ene4883100 0.0 1022483
08:00+5˚ene5881100 0.1 1023453
11:00+6˚e5780100 0.1 1023440
14:00+6˚e3681100 0.1 1023394
17:00+6˚e368899 0.4 1023289
20:00+5˚se359495 1.4 1023156
3 december, thu
thu323:00+4˚sw129571 0.4 102424
02:00+3˚nw229262 0.4 102422
05:00+2˚nnw119035 0.0 102422
08:00+3˚ne128653 0.0 102532
11:00+6˚e2383100 0.0 1025159
14:00+7˚ese237494 0.1 1024275
17:00+6˚ese128092 0.1 102422
20:00+5˚ese368968 0.1 1024165
4 december, fri
fri423:00+3˚ese379525 0.0 1024175
02:00+3˚e359613 0.0 1023121
05:00+2˚e37950 0.0 1022146
08:00+3˚e59967 0.0 1022259
11:00+6˚e688359 0.0 1022433
14:00+8˚e587673 0.0 1020526
17:00+6˚e511866 0.0 1020399
20:00+5˚e613915 0.0 1021390
5 december, sat
sat523:00+5˚e6129158 0.0 1021365
02:00+5˚e5129261 0.0 1021363
05:00+4˚e5129379 0.0 1021383
08:00+4˚e6129189 0.0 1022436
11:00+7˚ese71177100 0.0 1023522
14:00+8˚e7107097 0.0 1023542
17:00+5˚e6128162 0.0 1023462
20:00+4˚e7138537 0.0 1024458